Location: *
(58.4167°N, 22.5000°E)
Time: 04:04:37
(UTC+00:00)

CZ-2C R/B - Pass Details

Date: 22 September 2019
Orbit: 785 x 870 km, 98.3° (Epoch: 23 October)

Event Time Altitude Azimuth Distance (km) Brightness Sun altitude
Rises 17:32:10 0° 25° (NNE) 3,442 5.8 -8.8°
Reaches altitude 10° 17:36:28 10° 57° (ENE) 2,514 4.8 -9.3°
Maximum altitude 17:38:23 12° 77° (ENE) 2,396 4.5 -9.6°
Enters shadow 17:39:35 11° 90° (E) 2,445 4.5 -9.7°
